軌道要素
Epoch 2013 Apr. 18.0 TT = JDT 2456400.5
T 2013 Apr. 9.98222 TT MPC
q 2.8970922 (2000.0) P Q
n 0.06190719 Peri. 33.18511 -0.18132641 +0.96561662
a 6.3286148 Node 227.13452 -0.94853723 -0.22173542
e 0.5422233 Incl. 14.72432 -0.25961097 +0.13571271
P 15.9
From 97 observations 2012 Mar. 16-2013 Aug. 9, mean residual 0".6.
|